This demonstration page uses our WeatherBlox Daily Observations layout. Learn more.

Left ArrowRight Arrow

34.16533, -84.80231

Hourly Observations for August 10, 2020

Temp ( °F °C ) Dew Point ( °F °C ) Humidity (%) Winds ( mph kmh ) Pressure ( in mb ) Visibility ( mi km ) Precip ( " mm )
12:53 am 00:53 Mostly Clear 75 23.9 72 22.2 90 90 Calm 30.09 1019 9 14 0.00 0.00
1:53 am 01:53 Clear 75 23.9 71 21.7 88 88 Calm 30.08 1019 9 14 0.00 0.00
2:53 am 02:53 Clear with Mist and Fog 73 22.8 70 21.1 90 90 Calm 30.07 1018 6 10 0.00 0.00
3:53 am 03:53 Clear 75 23.9 71 21.7 88 88 Calm 30.06 1018 9 14 0.00 0.00
4:53 am 04:53 Clear 74 23.3 71 21.7 91 91 Calm 30.06 1018 7 11 0.00 0.00
5:53 am 05:53 Clear 74 23.3 70 21.1 88 88 Calm 30.06 1018 8 13 0.00 0.00
6:53 am 06:53 Clear 72 22.2 69 20.6 91 91 Calm 30.06 1018 7 11 0.00 0.00
7:53 am 07:53 Sunny 74 23.3 71 21.7 91 91 Calm 30.07 1018 7 11 0.00 0.00
8:53 am 08:53 Sunny 79 26.1 70 21.1 74 74 Calm 30.08 1019 10 16 0.00 0.00
9:53 am 09:53 Sunny 82 27.8 71 21.7 69 69 Calm 30.09 1019 10 16 0.00 0.00
10:53 am 10:53 Sunny 87 30.6 73 22.8 63 63 Calm 30.09 1019 10 16 0.00 0.00
11:53 am 11:53 Sunny 90 32.2 73 22.8 58 58 VRB 5 7 30.09 1019 10 16 0.00 0.00
12:53 pm 12:53 Mostly Cloudy 91 32.8 71 21.7 52 52 SW 3 6 30.06 1018 10 16 0.00 0.00
1:11 pm 13:11 Mostly Cloudy with Thunderstorms 90 32.2 72 22.2 56 56 S 8 13 30.05 1018 10 16 0.00 0.00
1:53 pm 13:53 Mostly Cloudy with Thunderstorms 82 27.8 66 18.9 58 58 S 14 22 30.04 1017 10 16 0.00 0.00
2:05 pm 14:05 Cloudy with Nearby Thunderstorms 80 26.7 69 20.6 69 69 S 18 30 30.06 1018 2 2 0.11 2.79
2:18 pm 14:18 Partly Cloudy with Strong Thunderstorms 75 23.9 69 20.6 82 82 SE 13 20 30.06 1018 2 3 0.40 10.16
2:20 pm 14:20 Partly Cloudy with Thunderstorms 76 24.4 70 21.1 82 82 SE 13 20 30.07 1018 3 5 0.40 10.16
2:53 pm 14:53 Mostly Cloudy with Nearby Thunderstorms 76 24.4 72 22.2 88 88 SSW 5 7 30.05 1018 4 6 0.43 10.92
3:01 pm 15:01 Mostly Cloudy with Thunderstorms 76 24.4 71 21.7 85 85 NNE 12 19 30.08 1019 5 8 0.01 0.25
3:53 pm 15:53 Cloudy with Nearby Thunderstorms 75 23.9 71 21.7 88 88 NNE 7 11 30.06 1018 8 13 0.04 1.02
4:07 pm 16:07 Cloudy with Thunderstorms 74 23.3 71 21.7 91 91 S 3 6 30.06 1018 4 6 0.03 0.76
4:22 pm 16:22 Cloudy with Nearby Thunderstorms 75 23.9 72 22.2 90 90 VRB 3 6 30.05 1018 8 13 0.03 0.76
4:40 pm 16:40 Mostly Cloudy with Light Rain 75 23.9 72 22.2 90 90 Calm 30.05 1018 6 10 0.04 1.02
4:53 pm 16:53 Mostly Cloudy with Light Rain 75 23.9 72 22.2 90 90 Calm 30.05 1018 7 11 0.04 1.02
5:09 pm 17:09 Mostly Cloudy with Thunderstorms 75 23.9 72 22.2 90 90 Calm 30.06 1018 6 10 0.01 0.25
5:24 pm 17:24 Cloudy with Light Rain 75 23.9 72 22.2 90 90 Calm 30.04 1017 6 10 0.02 0.51
5:53 pm 17:53 Cloudy 76 24.4 72 22.2 88 88 NE 3 6 30.01 1016 9 14 0.03 0.76
6:53 pm 18:53 Mostly Sunny 77 25 73 22.8 88 88 Calm 30.00 1016 9 14 0.00 0.00
7:53 pm 19:53 Sunny 77 25 73 22.8 88 88 Calm 30.01 1016 9 14 0.00 0.00
8:53 pm 20:53 Clear 75 23.9 73 22.8 94 94 Calm 30.01 1016 7 11 0.00 0.00
9:53 pm 21:53 Clear with Mist and Fog 75 23.9 72 22.2 90 90 Calm 30.01 1016 5 8 0.00 0.00
10:24 pm 22:24 Mostly Clear with Mist and Fog 75 23.9 72 22.2 90 90 Calm 30.02 1017 5 8 0.00 0.00
10:53 pm 22:53 Clear 75 23.9 72 22.2 90 90 Calm 30.01 1016 9 14 0.00 0.00
11:53 pm 23:53 Clear with Mist and Fog 73 22.8 71 21.7 94 94 Calm 30.04 1017 5 8 0.00 0.00

Powered by AerisWeather